This is the latest recevied weather packets stored in our database for station/object K5OLV. If no packets are shown the sender has not sent any weather packets the latest 10 day(s).
| Time | Temp. | Humidity | Pressure | Rain* | Wind** | Luminosity | Snow |
|---|---|---|---|---|---|---|---|
| 1777966430 | 17.22° C | 57% | 1011 hPa | 0 mm | - | 0 W/m² | - |
| 1777966126 | 16.67° C | 57% | 1011.1 hPa | 0 mm | - | 0 W/m² | - |
| 1777965822 | 16.11° C | 58% | 1011.2 hPa | 0 mm | - | 0 W/m² | - |
| 1777965519 | 16.11° C | 58% | 1011.3 hPa | 0 mm | - | 0 W/m² | - |
| 1777965215 | 15.56° C | 63% | 1011.5 hPa | 0 mm | - | 0 W/m² | - |
| 1777964914 | 14.44° C | 63% | 1011.3 hPa | 0 mm | - | 0 W/m² | - |
| 1777964609 | 14.44° C | 69% | 1011.1 hPa | 0 mm | - | 0 W/m² | - |
| 1777964305 | 14.44° C | 68% | 1011 hPa | 0 mm | - | 0 W/m² | - |
| 1777964002 | 14.44° C | 68% | 1011.4 hPa | 0 mm | - | 0 W/m² | - |
| 1777963699 | 14.44° C | 67% | 1011.5 hPa | 0 mm | - | 0 W/m² | - |
| 1777963396 | 14.44° C | 67% | 1011.3 hPa | 0 mm | - | 0 W/m² | - |
| 1777963094 | 15° C | 66% | 1011.2 hPa | 0 mm | - | 0 W/m² | - |
| 1777962790 | 15.56° C | 65% | 1011.4 hPa | 0 mm | - | 0 W/m² | - |
| 1777962486 | 15.56° C | 65% | 1011.3 hPa | 0 mm | - | 0 W/m² | - |
| 1777962184 | 15.56° C | 64% | 1011.4 hPa | 0 mm | - | 0 W/m² | - |
| 1777961881 | 15.56° C | 64% | 1011.3 hPa | 0 mm | - | 0 W/m² | - |
| 1777961579 | 15.56° C | 63% | 1011.5 hPa | 0 mm | - | 0 W/m² | - |
| 1777961276 | 15.56° C | 64% | 1011.3 hPa | 0 mm | - | 0 W/m² | - |
| 1777960973 | 15° C | 65% | 1011.4 hPa | 0 mm | - | 0 W/m² | - |
| 1777960668 | 15.56° C | 66% | 1011.5 hPa | 0 mm | - | 0 W/m² | - |
| 1777960365 | 15.56° C | 64% | 1011.4 hPa | 0 mm | - | 0 W/m² | - |
| 1777960062 | 15.56° C | 62% | 1011.3 hPa | 0 mm | - | 0 W/m² | - |
| 1777959760 | 15.56° C | 63% | 1011.5 hPa | 0 mm | - | 0 W/m² | - |
| 1777959458 | 15.56° C | 65% | 1011.4 hPa | 0 mm | - | 0 W/m² | - |
| 1777959154 | 15° C | 65% | 1011.4 hPa | 0 mm | - | 0 W/m² | - |
* Rain latest hour (hover to see other rain measurements)
** Current wind speed in m/s (hover to see current wind gust speed)